Torna al catalogo

STARLINK-31354

AttivoComunicazioniVLEO
NORAD 58942·PAYLOAD·🇺🇸 United States

Lanciato Feb 10, 2024 da Vandenberg Space Force Base

Loading…

Prossimi Passaggi (prossime 24 ore)

TLE

AggiornatoSource: CelesTrak SupGP

Epoca: Sep 15, 2026, 02:50 UTC

1 58942C 24027M   26258.11854167  .00036669  00000+0  11793-2 0  2589
2 58942  53.1579 148.4124 0001382  83.6601 129.7846 15.31679142    19

Traccia STARLINK-31354 in tempo reale con AllMySat

Download on the App Store